Wetbulb
73.09 72.61 71.96 68.76 58.03 57.17 55.21 56.61 61.18 58.35 58.36 61.60 61.74 60.97 60.52 62.28 59.58 53.02 68.54 70.71 72.73 73.23 74.10 75.10 77.04 76.61 76.46 76.44 76.69 76.44 76.47 76.20 76.50 76.39 77.16 76.84 77.20 77.31 77.11 77.19 77.00 77.24 77.39 76.88 76.76 76.59 76.26 76.18 75.99
71.87 71.82 71.32 65.53 56.17 52.38 53.06 59.62 57.83 60.46 62.22 62.21 63.05 63.78 62.40 60.71 66.36 67.33 68.21 72.26 73.25 73.84 74.30 74.82 76.66 76.96 76.09 75.91 76.03 76.52 76.65 76.57 76.41 76.76 76.91 77.04 77.25 77.42 77.22 77.34 77.49 77.30 77.28 76.96 76.65 76.24 76.02 75.90 75.80
71.65 71.72 64.43 59.97 56.31 53.41 54.03 59.85 59.57 62.32 63.27 62.04 63.05 65.65 64.39 63.45 66.84 67.37 70.58 72.76 73.80 73.35 74.03 74.65 76.33 76.33 75.52 75.24 75.39 75.47 76.02 76.50 76.51 76.87 76.55 76.93 77.08 77.29 77.32 77.24 77.31 77.33 77.44 76.60 76.46 75.69 75.44 75.28 75.27
70.17 67.28 65.35 58.03 54.40 58.98 59.59 60.25 61.43 61.62 63.86 65.41 64.95 61.58 66.05 68.80 67.58 69.41 72.43 73.08 72.86 72.87 73.51 75.54 76.82 76.52 76.26 76.08 75.96 75.31 75.12 75.88 76.67 76.30 76.31 77.16 77.14 77.12 76.95 76.73 77.03 76.57 76.43 76.46 76.27 76.21 75.66 75.44 76.09
70.68 66.36 57.91 57.08 57.28 59.46 61.87 62.60 62.07 60.41 62.15 63.72 64.20 60.78 61.96 67.85 70.47 71.61 71.60 72.07 71.88 72.31 73.61 74.17 76.82 76.25 76.63 75.97 76.02 76.11 75.93 75.78 76.03 76.55 76.13 76.90 77.17 77.16 77.18 76.74 76.63 76.68 76.24 76.02 76.21 76.32 76.16 75.91 75.94
64.98 64.90 56.88 54.66 57.15 61.88 62.08 62.90 62.69 62.33 63.17 63.25 62.45 61.74 61.72 69.13 69.34 70.16 71.06 70.85 73.12 73.16 73.47 74.32 76.15 76.53 76.47 75.96 76.30 75.42 76.16 76.02 76.25 76.25 76.34 76.94 77.03 76.84 76.79 76.66 76.85 76.60 76.47 76.30 76.18 76.04 76.24 76.34 76.59
63.42 61.41 56.05 57.88 57.94 59.05 61.14 63.99 62.08 61.91 62.06 62.00 64.66 59.66 63.21 66.49 69.10 70.36 70.76 72.13 73.13 73.76 73.47 73.19 74.12 75.56 76.44 75.98 76.06 76.14 76.61 76.23 76.07 76.05 76.44 76.62 76.70 76.62 76.65 76.99 76.91 76.50 76.16 75.94 75.69 75.49 75.65 76.36 76.61
66.20 61.81 56.22 57.48 57.62 58.30 62.94 63.38 64.62 62.89 61.46 66.03 65.44 59.62 59.97 65.16 70.20 71.75 71.96 72.24 72.35 72.74 73.33 72.54 72.93 73.25 73.20 73.87 76.17 76.30 76.60 76.24 76.10 76.30 76.38 76.52 76.63 76.57 76.73 77.70 77.41 76.30 75.83 75.55 75.41 75.35 75.54 75.49 76.09
67.78 58.03 54.46 56.57 58.62 59.69 64.38 62.21 66.78 67.16 63.37 64.72 65.68 64.44 65.62 69.66 71.00 70.00 70.06 70.41 71.31 72.47 71.89 71.93 72.11 72.42 72.63 73.28 74.72 75.96 76.34 76.11 76.27 75.77 76.28 75.01 72.45 73.44 74.10 76.32 76.80 76.11 75.72 75.58 75.52 75.11 75.33 75.36 75.39
61.88 55.04 57.17 61.49 62.97 61.33 63.76 64.59 64.27 62.68 62.17 62.24 63.27 65.99 68.84 69.56 68.90 68.10 67.98 68.43 69.29 70.44 71.45 71.63 71.63 71.89 72.38 74.60 72.82 72.73 73.63 72.25 72.58 72.30 71.69 71.14 71.46 72.13 73.92 74.92 76.02 75.97 75.83 75.69 75.41 75.00 75.08 75.17 71.77
60.93 56.07 61.32 62.09 64.64 64.72 63.41 63.90 65.52 61.74 60.26 62.10 61.76 64.73 67.53 67.75 67.54 67.83 68.25 68.40 68.65 70.79 71.59 71.51 71.15 71.79 71.80 72.41 71.77 72.16 71.56 71.13 71.16 71.34 70.70 70.79 71.15 71.73 72.16 71.85 71.99 72.15 74.39 72.26 73.28 72.68 72.68 73.01 72.74
56.91 61.36 62.60 64.28 63.89 62.33 63.29 64.91 62.82 63.03 63.01 65.80 66.40 67.03 67.06 66.35 66.84 67.53 67.66 68.28 69.18 70.37 70.94 71.39 71.34 71.10 71.55 71.82 71.28 71.25 71.14 70.77 70.47 70.45 70.00 69.70 69.66 70.38 70.70 70.77 70.81 70.51 70.84 69.94 70.80 69.55 70.16 70.08 71.60
58.39 61.97 64.57 65.89 64.75 64.88 65.84 63.93 63.58 63.13 65.17 67.49 67.48 67.29 66.38 66.44 67.06 67.73 68.31 69.00 69.58 69.50 70.75 70.86 70.82 69.08 69.98 70.03 70.26 70.09 70.88 71.16 70.59 70.59 70.32 69.59 69.49 68.77 69.59 70.00 69.93 70.11 69.15 69.22 68.97 69.29 70.33 67.75 66.64
57.34 63.15 64.72 65.27 65.30 65.18 62.62 62.86 62.90 64.02 67.15 66.11 66.25 65.92 66.29 66.60 66.88 67.34 67.83 67.90 68.75 69.80 70.48 70.39 69.35 67.22 67.45 68.20 69.19 68.61 69.71 70.37 70.72 69.76 70.84 69.81 69.80 68.09 68.76 69.38 69.53 69.51 69.99 69.85 68.29 69.05 70.52 67.32 67.08
63.13 59.18 62.82 63.72 64.27 63.19 64.50 60.49 59.68 64.41 65.18 64.83 65.60 65.74 66.22 66.11 67.29 67.16 68.35 68.29 68.75 70.01 70.22 69.84 68.67 65.92 65.62 67.10 69.08 68.20 70.66 70.56 70.56 71.89 70.88 70.09 69.71 69.41 68.85 69.21 68.97 69.43 69.56 67.69 69.03 70.24 67.50 68.78 68.61
58.35 57.81 54.85 61.87 62.46 63.12 61.29 54.90 61.63 66.77 65.40 63.40 64.86 65.62 65.31 65.81 66.88 68.22 69.22 68.94 69.77 69.92 69.15 69.00 70.48 67.93 65.05 66.77 69.19 69.14 69.23 69.49 70.13 71.32 71.59 70.64 70.36 69.95 69.97 69.85 69.52 70.26 69.33 69.16 69.05 67.56 67.32 68.74 68.88
44.89 46.75 52.44 55.88 62.70 62.26 59.57 55.25 61.17 65.71 63.98 62.77 62.93 63.94 65.02 65.10 67.04 68.20 69.28 69.92 70.09 69.97 69.21 68.90 67.71 66.01 65.76 68.91 68.56 66.97 68.53 68.90 69.21 71.30 71.06 71.42 71.50 71.84 70.66 70.42 70.00 70.42 70.20 68.84 68.42 68.66 68.84 67.46 66.60
40.57 46.55 52.04 53.93 58.59 60.87 57.93 56.35 61.36 63.99 62.68 62.00 63.88 63.04 64.01 65.58 66.32 68.13 69.00 70.43 70.31 70.20 69.44 69.04 68.67 68.64 69.51 69.38 67.51 68.16 68.34 68.49 69.80 71.20 71.39 71.21 72.68 71.90 72.28 70.81 70.99 70.10 68.69 68.20 67.75 68.15 69.61 68.71 67.78
44.41 43.59 50.50 58.00 60.73 59.41 57.58 56.89 60.07 62.41 63.05 62.74 63.03 63.65 64.00 64.85 67.41 68.66 69.03 70.46 69.51 69.02 68.55 68.95 68.84 69.01 69.73 68.70 67.19 67.17 66.95 68.54 69.96 70.56 71.68 72.20 72.57 71.34 71.59 71.13 70.43 70.28 69.37 68.15 70.38 70.16 68.84 68.42 67.70
44.64 43.69 52.31 57.65 59.35 58.84 57.44 57.34 59.64 61.51 61.61 62.63 62.33 63.25 63.22 64.88 66.07 67.31 68.15 69.26 68.03 67.95 68.82 68.39 69.02 69.26 69.67 70.33 70.32 69.82 69.35 70.23 69.89 70.26 71.80 71.98 72.53 70.88 70.64 70.21 69.67 69.76 69.69 69.30 69.35 69.94 68.36 67.28 66.94
41.66 43.50 47.50 54.85 58.39 59.41 57.63 55.33 57.44 60.68 62.33 62.65 63.06 64.57 64.53 63.70 64.06 65.94 67.07 67.80 67.12 67.10 68.21 68.38 69.18 69.18 69.66 71.39 70.57 69.74 70.48 70.50 70.07 69.68 70.74 71.50 72.57 71.57 71.09 71.03 70.37 70.81 70.30 68.92 69.60 70.34 69.69 68.20 68.72
37.14 46.40 49.45 56.05 52.44 48.50 56.22 46.65 54.77 57.35 58.84 60.40 61.72 62.61 63.18 63.02 64.17 65.95 66.51 66.57 66.26 67.63 69.17 69.32 69.46 68.29 69.87 70.87 69.42 68.54 68.56 67.31 69.04 69.40 70.46 71.30 72.14 72.40 72.93 72.28 71.47 71.51 70.73 69.83 70.54 72.39 70.40 69.36 68.69
43.73 51.58 48.83 54.88 50.21 49.15 51.08 48.23 47.40 56.82 56.39 58.67 60.06 61.35 64.06 63.08 63.98 65.42 66.29 66.99 67.05 69.09 69.19 70.02 69.36 69.55 70.27 69.99 69.29 68.27 68.33 68.23 69.51 70.00 70.31 70.59 71.30 71.91 72.45 72.08 71.53 70.11 69.51 70.05 70.89 70.73 70.39 71.03 70.25
57.77 54.65 52.42 50.64 48.45 42.89 48.47 49.35 48.24 53.51 55.97 58.30 60.91 62.84 64.43 64.26 64.55 64.03 66.93 67.91 67.01 69.49 69.82 70.20 69.18 69.65 70.86 70.90 69.01 68.27 67.88 67.82 67.85 68.86 69.87 69.96 70.52 71.20 71.36 72.30 71.83 70.77 69.65 69.48 71.32 71.27 70.37 70.70 70.86
54.05 45.64 40.42 41.10 40.27 40.23 46.24 49.00 49.82 55.26 58.49 60.29 60.82 62.31 64.31 64.49 63.89 66.68 64.70 66.85 66.71 68.51 69.36 69.75 68.39 68.15 70.03 70.52 69.73 68.56 67.10 67.59 68.09 69.02 69.67 69.44 69.46 70.18 71.19 71.06 70.82 70.46 70.87 70.23 71.75 70.75 70.55 70.77 69.97
49.60 45.30 40.07 35.36 37.56 39.76 47.99 45.05 50.76 57.36 59.62 60.67 62.89 63.44 64.52 64.59 65.65 66.08 65.97 66.18 67.12 68.21 69.73 69.46 68.36 67.95 69.72 69.99 70.59 69.33 67.36 66.50 68.74 69.36 69.80 70.09 70.03 70.59 71.27 71.69 71.64 71.61 71.42 71.16 71.51 70.71 70.71 71.02 70.63
44.29 43.02 45.91 40.56 39.13 41.57 46.17 52.97 56.85 58.34 58.60 59.88 61.07 62.24 63.09 65.05 66.07 66.17 67.75 67.71 66.93 67.22 69.29 70.10 69.26 68.80 69.91 70.04 70.35 69.05 67.65 69.14 69.07 69.39 69.77 70.43 70.55 70.69 70.87 71.98 72.41 72.03 71.94 71.97 71.23 70.62 70.73 70.51 70.41
46.26 47.80 40.60 38.79 34.62 35.20 43.48 46.86 50.20 53.78 55.65 58.19 58.45 60.28 61.36 63.50 66.66 66.79 67.81 68.58 68.39 67.46 68.80 71.21 70.45 69.13 68.61 69.96 70.03 70.56 69.76 69.51 67.67 68.28 69.04 70.50 70.24 70.15 70.66 71.65 72.58 71.98 71.66 71.70 71.31 70.76 70.36 70.48 70.64
44.44 41.68 40.27 40.42 37.91 36.91 38.39 44.04 55.21 55.51 55.91 56.74 58.63 60.28 61.60 63.18 64.75 65.94 67.30 68.36 67.89 67.98 68.00 68.07 66.86 66.68 66.50 67.98 68.25 68.47 69.71 70.94 69.92 68.75 69.08 69.73 69.95 70.04 70.69 70.69 71.50 71.84 71.67 71.48 71.05 70.07 70.12 70.09 69.63
43.39 41.33 40.57 38.14 37.01 42.45 41.55 46.79 56.56 57.41 57.14 57.26 57.98 60.58 62.12 63.17 63.39 65.15 65.88 67.05 66.87 67.17 66.74 65.82 65.76 65.79 66.92 67.67 67.91 68.45 68.70 69.44 70.53 71.06 72.07 71.56 70.18 70.06 69.02 68.69 69.08 70.11 70.50 71.49 71.73 70.76 71.45 70.69 69.50
MSLP
1010.74 1010.94 1011.07 1011.24 1011.85 1011.07 1010.04 1009.50 1008.67 1008.85 1009.62 1009.89 1010.72 1011.06 1011.77 1012.32 1013.35 1014.78 1014.77 1015.10 1015.21 1015.71 1015.86 1016.07 1016.10 1016.21 1016.37 1016.51 1016.63 1016.74 1016.79 1016.86 1016.86 1016.88 1016.87 1016.87 1016.78 1016.71 1016.74 1016.87 1016.97 1016.93 1017.06 1017.21 1017.37 1017.37 1017.54 1017.76 1017.82
1010.91 1011.01 1011.00 1011.13 1011.22 1010.58 1009.67 1008.68 1008.50 1008.42 1008.73 1009.53 1010.41 1010.80 1011.79 1013.10 1013.54 1014.28 1014.96 1015.34 1015.27 1015.73 1016.07 1016.26 1016.27 1016.37 1016.55 1016.74 1016.87 1016.94 1017.02 1017.20 1017.27 1017.27 1017.34 1017.25 1017.14 1017.13 1017.19 1017.27 1017.24 1017.29 1017.48 1017.65 1017.82 1017.87 1017.97 1018.09 1018.13
1011.13 1011.43 1011.61 1011.51 1011.00 1010.26 1009.41 1008.64 1008.30 1008.29 1008.65 1009.52 1010.59 1011.16 1012.33 1013.53 1013.99 1014.36 1014.74 1015.18 1015.49 1015.97 1016.20 1016.36 1016.59 1016.72 1016.81 1016.93 1017.04 1017.22 1017.31 1017.42 1017.55 1017.68 1017.67 1017.62 1017.54 1017.53 1017.55 1017.62 1017.60 1017.81 1017.89 1018.09 1018.29 1018.34 1018.33 1018.39 1018.49
1011.29 1011.96 1012.03 1011.58 1010.65 1009.65 1008.72 1008.56 1008.43 1008.61 1009.37 1009.87 1010.70 1012.06 1012.82 1013.43 1014.02 1014.41 1014.90 1015.15 1015.83 1016.24 1016.40 1016.54 1016.75 1016.86 1017.03 1017.20 1017.26 1017.44 1017.59 1017.61 1017.71 1017.83 1017.90 1017.82 1017.77 1017.83 1017.85 1017.91 1018.00 1018.14 1018.33 1018.42 1018.59 1018.71 1018.69 1018.70 1018.62
1011.25 1011.82 1012.11 1011.49 1010.41 1009.47 1008.74 1008.39 1008.56 1008.92 1009.50 1010.17 1010.86 1012.54 1013.26 1014.20 1014.40 1015.07 1015.37 1015.67 1016.06 1016.47 1016.58 1016.70 1016.77 1017.03 1017.16 1017.32 1017.38 1017.56 1017.74 1017.81 1017.97 1017.98 1018.13 1018.13 1018.21 1018.22 1018.19 1018.36 1018.39 1018.56 1018.67 1018.79 1018.93 1018.96 1018.99 1018.99 1018.97
1011.51 1011.65 1011.42 1011.01 1010.11 1009.15 1008.79 1008.64 1008.95 1009.19 1009.86 1010.78 1011.70 1012.54 1014.23 1014.75 1014.93 1015.58 1015.88 1016.06 1016.26 1016.57 1016.74 1016.86 1017.05 1017.19 1017.26 1017.54 1017.56 1017.74 1017.85 1018.04 1018.11 1018.28 1018.40 1018.46 1018.58 1018.65 1018.55 1018.60 1018.70 1018.74 1018.80 1018.95 1019.07 1019.17 1019.32 1019.22 1019.08
1011.15 1011.26 1011.79 1010.60 1010.04 1009.21 1009.18 1009.21 1009.25 1009.78 1010.31 1011.04 1011.49 1012.85 1014.64 1015.22 1015.32 1015.71 1016.24 1016.49 1016.51 1016.73 1016.90 1017.12 1017.22 1017.31 1017.48 1017.74 1017.89 1017.99 1017.98 1018.24 1018.42 1018.54 1018.58 1018.77 1018.86 1018.93 1018.88 1018.89 1018.90 1018.97 1019.09 1019.28 1019.38 1019.44 1019.50 1019.52 1019.59
1011.10 1011.62 1011.65 1011.30 1010.11 1010.16 1009.67 1009.93 1010.03 1009.60 1010.43 1011.16 1011.89 1013.12 1014.44 1015.06 1015.56 1016.26 1016.71 1017.01 1017.18 1017.18 1017.28 1017.50 1017.55 1017.71 1017.82 1017.95 1018.14 1018.26 1018.39 1018.51 1018.61 1018.70 1018.85 1018.96 1019.09 1019.18 1019.16 1019.17 1019.29 1019.39 1019.47 1019.62 1019.80 1019.86 1019.86 1019.82 1019.84
1011.00 1011.74 1011.57 1011.31 1010.84 1010.73 1010.29 1010.24 1010.31 1010.09 1010.40 1011.33 1011.62 1012.57 1013.91 1015.03 1015.79 1016.52 1017.13 1017.49 1017.67 1017.81 1017.85 1017.84 1017.91 1018.08 1018.22 1018.25 1018.26 1018.43 1018.56 1018.71 1018.80 1018.99 1019.12 1019.29 1019.49 1019.56 1019.62 1019.58 1019.61 1019.72 1019.80 1019.85 1020.00 1020.09 1020.16 1020.13 1020.09
1010.80 1011.19 1011.12 1010.64 1010.80 1010.94 1010.73 1010.78 1010.59 1010.49 1011.28 1012.00 1012.43 1013.52 1014.40 1015.30 1015.88 1016.44 1017.07 1017.44 1017.77 1017.87 1018.07 1018.03 1018.09 1018.34 1018.44 1018.40 1018.69 1018.84 1018.98 1019.17 1019.23 1019.43 1019.67 1019.86 1019.92 1019.90 1019.87 1019.82 1019.81 1019.94 1019.97 1019.98 1020.03 1020.12 1020.22 1020.39 1020.37
1010.16 1010.36 1010.21 1010.08 1010.34 1010.50 1010.78 1011.05 1011.31 1010.86 1011.72 1011.65 1012.36 1013.56 1014.65 1015.35 1015.95 1016.38 1017.08 1017.30 1017.40 1017.81 1018.11 1018.26 1018.32 1018.41 1018.58 1018.83 1019.07 1019.26 1019.37 1019.49 1019.61 1019.74 1019.94 1020.18 1020.26 1020.27 1020.15 1020.26 1020.47 1020.23 1020.21 1020.39 1020.44 1020.46 1020.45 1020.36 1020.26
1009.79 1009.33 1009.50 1009.66 1009.98 1010.65 1010.68 1011.11 1011.54 1011.69 1012.18 1012.20 1012.54 1013.39 1014.44 1015.22 1015.74 1016.25 1016.70 1017.19 1017.50 1017.93 1018.15 1018.39 1018.29 1018.54 1018.76 1019.04 1019.33 1019.47 1019.64 1019.69 1019.86 1019.91 1020.07 1020.38 1020.66 1020.72 1020.64 1020.65 1020.65 1020.65 1020.64 1020.73 1020.60 1020.80 1020.71 1020.51 1020.13
1009.37 1009.05 1009.32 1009.38 1009.53 1009.99 1010.52 1011.25 1011.62 1012.27 1012.41 1012.50 1012.99 1013.80 1014.43 1015.09 1015.62 1016.20 1016.66 1017.18 1017.55 1017.95 1018.19 1018.50 1018.58 1018.90 1019.11 1019.33 1019.50 1019.61 1019.72 1019.86 1019.89 1020.04 1020.16 1020.42 1020.72 1020.90 1020.97 1020.99 1021.03 1020.96 1020.92 1020.96 1020.76 1020.70 1020.36 1020.05 1020.05
1008.52 1009.06 1009.48 1009.68 1009.88 1010.26 1011.21 1012.37 1012.25 1012.13 1011.89 1012.41 1012.93 1013.63 1014.31 1014.70 1015.27 1015.91 1016.55 1017.08 1017.40 1017.86 1018.20 1018.55 1018.91 1019.03 1019.28 1019.51 1019.65 1019.84 1019.85 1019.95 1019.91 1020.18 1020.22 1020.46 1020.78 1021.02 1021.17 1021.08 1021.14 1021.07 1021.00 1020.94 1020.95 1020.85 1020.72 1020.36 1020.33
1008.95 1009.81 1009.85 1010.23 1010.38 1010.93 1011.35 1012.23 1012.11 1011.74 1011.88 1012.33 1012.99 1013.54 1014.11 1014.55 1015.11 1015.25 1015.87 1016.70 1017.17 1017.65 1018.13 1018.54 1018.80 1019.23 1019.47 1019.66 1019.73 1019.98 1020.02 1019.95 1019.97 1020.07 1020.35 1020.51 1020.73 1020.98 1020.96 1020.99 1021.17 1021.19 1021.08 1020.95 1020.95 1020.69 1020.78 1020.80 1020.60
1009.68 1010.23 1010.61 1010.49 1010.66 1011.41 1011.43 1012.42 1012.41 1011.99 1012.03 1012.67 1012.91 1013.54 1014.00 1014.42 1014.73 1015.45 1015.91 1016.42 1016.99 1017.57 1018.06 1018.54 1018.71 1019.23 1019.61 1019.82 1019.78 1019.93 1020.09 1020.22 1020.09 1020.09 1020.35 1020.64 1020.63 1020.77 1020.95 1021.13 1021.22 1021.27 1021.18 1021.14 1020.93 1020.96 1020.92 1020.97 1021.00
1010.25 1010.59 1010.79 1010.67 1010.73 1010.93 1011.79 1012.77 1012.79 1012.49 1012.51 1012.78 1012.91 1013.39 1013.82 1014.56 1015.06 1015.57 1015.95 1016.41 1016.88 1017.48 1017.84 1018.38 1018.61 1018.99 1019.45 1019.68 1019.98 1020.15 1020.15 1020.34 1020.32 1020.20 1020.28 1020.53 1020.56 1020.74 1020.99 1021.14 1021.26 1021.32 1021.36 1021.42 1021.20 1021.15 1021.16 1021.17 1020.93
1010.77 1010.85 1010.79 1010.56 1010.87 1011.00 1012.00 1012.85 1013.00 1012.83 1013.06 1013.16 1013.42 1013.20 1013.71 1014.30 1014.50 1015.24 1015.89 1016.43 1016.73 1017.36 1017.92 1018.15 1018.57 1019.02 1019.33 1019.64 1020.02 1020.16 1020.29 1020.29 1020.13 1020.43 1020.53 1020.55 1020.66 1020.87 1020.89 1021.13 1021.31 1021.46 1021.73 1021.58 1021.51 1021.42 1021.21 1021.23 1021.20
1010.33 1010.57 1010.54 1010.78 1010.79 1011.62 1012.32 1013.22 1013.15 1013.24 1013.53 1014.00 1013.98 1013.80 1013.92 1014.17 1014.58 1015.21 1015.76 1016.49 1016.84 1017.29 1017.82 1018.13 1018.58 1019.00 1019.26 1019.73 1020.07 1020.24 1020.30 1020.38 1020.47 1020.47 1020.46 1020.57 1020.60 1020.87 1021.04 1021.14 1021.37 1021.38 1021.68 1021.63 1021.48 1021.49 1021.52 1021.34 1021.28
1010.17 1010.36 1010.92 1011.40 1011.53 1011.99 1013.12 1013.64 1013.94 1014.00 1014.09 1013.86 1014.04 1014.33 1014.24 1014.46 1014.82 1015.27 1015.88 1016.24 1016.80 1017.07 1017.54 1018.06 1018.45 1018.58 1018.93 1019.30 1019.64 1019.76 1019.98 1020.21 1020.34 1020.38 1020.49 1020.64 1020.55 1020.71 1020.94 1021.18 1021.31 1021.42 1021.72 1021.70 1021.69 1021.68 1021.82 1021.80 1021.69
1009.84 1010.04 1010.51 1011.28 1012.07 1012.46 1013.26 1014.33 1014.17 1013.97 1014.24 1014.69 1014.74 1014.91 1014.69 1014.58 1014.97 1015.39 1015.81 1015.98 1016.54 1016.99 1017.22 1017.69 1018.16 1018.32 1018.64 1019.10 1019.47 1019.86 1020.04 1020.30 1020.56 1020.58 1020.66 1020.64 1020.59 1020.63 1020.75 1021.01 1021.41 1021.50 1021.62 1021.89 1021.83 1021.70 1021.87 1022.08 1021.90
1009.47 1009.02 1009.72 1011.05 1012.05 1012.91 1013.28 1014.34 1014.45 1014.32 1014.43 1014.52 1014.73 1014.98 1015.03 1014.96 1015.27 1015.10 1015.50 1015.92 1016.15 1016.52 1016.88 1017.15 1017.80 1018.26 1018.67 1018.89 1019.21 1019.61 1019.99 1020.39 1020.45 1020.41 1020.55 1020.48 1020.51 1020.67 1020.73 1020.92 1021.26 1021.45 1021.69 1021.84 1021.75 1021.62 1021.95 1021.99 1022.14
1008.72 1008.77 1009.53 1011.08 1012.36 1013.04 1013.81 1014.03 1013.99 1014.19 1014.48 1014.17 1014.11 1014.74 1015.05 1015.38 1015.31 1014.87 1014.97 1015.17 1015.60 1016.17 1016.45 1016.88 1017.60 1018.22 1018.56 1018.71 1019.01 1019.47 1020.04 1020.33 1020.31 1020.52 1020.69 1020.74 1020.65 1020.67 1020.72 1020.85 1021.12 1021.49 1021.73 1021.72 1021.69 1021.88 1022.01 1022.02 1022.14
1008.54 1009.59 1010.49 1011.95 1012.99 1013.67 1013.28 1013.71 1013.61 1013.38 1013.40 1013.83 1014.26 1014.81 1015.15 1015.77 1015.54 1015.55 1015.41 1015.19 1015.41 1016.07 1016.61 1016.90 1017.58 1018.17 1018.44 1018.77 1019.07 1019.46 1019.89 1020.19 1020.58 1020.72 1020.83 1020.94 1020.94 1020.78 1020.82 1020.91 1021.13 1021.40 1021.70 1021.71 1021.68 1021.72 1022.10 1022.14 1022.26
1008.15 1009.94 1011.62 1013.11 1014.06 1013.85 1013.12 1013.84 1013.14 1013.28 1012.98 1013.17 1013.54 1014.18 1015.32 1015.87 1015.83 1015.81 1015.66 1015.70 1016.01 1015.90 1016.37 1017.02 1017.54 1018.20 1018.41 1018.66 1018.98 1019.33 1019.65 1019.95 1020.22 1020.48 1020.81 1020.97 1021.01 1021.00 1020.96 1020.95 1021.16 1021.30 1021.42 1021.59 1021.62 1021.82 1022.12 1022.31 1022.30
1007.94 1008.74 1010.36 1011.86 1013.16 1013.62 1013.67 1013.70 1013.66 1013.51 1013.22 1013.18 1013.63 1014.74 1015.37 1016.10 1016.15 1015.93 1015.77 1015.78 1015.92 1016.14 1016.16 1016.87 1017.48 1018.03 1018.47 1018.77 1018.91 1019.20 1019.53 1019.93 1020.04 1020.11 1020.48 1020.69 1020.83 1020.84 1020.70 1020.82 1020.95 1021.09 1021.26 1021.56 1021.69 1021.85 1022.07 1022.14 1022.42
1007.37 1008.34 1008.59 1010.57 1011.96 1012.89 1013.36 1013.84 1013.88 1014.13 1014.18 1014.17 1014.54 1015.10 1015.66 1015.91 1016.34 1016.16 1016.32 1016.02 1016.32 1016.63 1016.46 1016.54 1017.19 1017.95 1018.45 1018.88 1019.03 1019.26 1019.55 1019.70 1019.98 1020.04 1020.22 1020.41 1020.66 1020.65 1020.73 1020.73 1020.79 1020.96 1021.14 1021.27 1021.63 1021.96 1022.02 1022.21 1022.44
1006.19 1007.15 1008.86 1010.15 1011.83 1012.69 1013.49 1013.60 1013.72 1014.31 1014.54 1014.78 1015.16 1015.48 1015.79 1016.00 1016.13 1016.08 1015.93 1015.68 1016.37 1016.48 1016.74 1017.11 1017.21 1017.90 1018.45 1018.88 1019.23 1019.33 1019.55 1019.70 1019.68 1019.86 1020.21 1020.28 1020.46 1020.57 1020.77 1020.72 1020.71 1020.83 1021.04 1021.20 1021.42 1021.86 1021.94 1022.24 1022.44
1006.97 1007.41 1008.62 1009.84 1011.28 1012.06 1013.55 1014.10 1014.25 1014.50 1014.85 1015.10 1015.36 1015.69 1016.03 1016.19 1016.37 1016.42 1015.85 1016.04 1017.09 1017.05 1017.00 1017.41 1017.60 1018.16 1018.66 1018.91 1019.26 1019.36 1019.34 1019.67 1019.83 1019.79 1019.94 1020.01 1020.17 1020.39 1020.66 1020.65 1020.83 1020.97 1021.04 1021.05 1021.45 1021.71 1021.93 1022.13 1022.38
1007.76 1008.07 1008.41 1009.86 1011.41 1012.44 1013.52 1014.53 1014.31 1014.46 1015.01 1015.15 1015.47 1015.65 1016.25 1016.60 1016.57 1016.65 1016.58 1016.30 1017.25 1017.08 1017.30 1018.01 1018.31 1018.15 1018.87 1019.04 1019.28 1019.41 1019.61 1019.60 1019.71 1019.82 1019.73 1019.77 1019.94 1020.07 1020.49 1020.58 1020.81 1020.87 1020.91 1021.07 1021.28 1021.52 1021.67 1021.90 1022.10
Wind_Speed
4 3 1 2 1 1 1 3 3 11 9 6 15 4 4 5 2 4 5 7 13 9 7 10 13 14 13 13 13 12 12 12 10 11 12 12 12 13 13 13 13 14 14 16 17 16 16 15 15
3 3 2 2 2 2 2 4 6 8 12 20 6 8 6 4 5 12 7 12 12 9 6 6 13 14 13 11 11 12 12 12 11 11 11 11 12 13 14 12 12 13 14 15 15 15 14 13 13
4 8 2 2 1 1 3 4 10 7 18 18 6 8 4 3 11 7 11 14 11 7 6 8 13 13 13 12 11 11 10 11 11 11 11 12 12 13 13 12 12 13 14 15 14 13 11 9 10
3 2 1 2 2 3 8 11 16 15 12 5 13 11 6 9 4 7 16 14 11 7 6 11 13 12 13 12 12 12 11 10 10 10 10 12 11 12 11 11 11 12 13 12 12 11 10 9 9
3 1 2 2 3 1 2 12 12 8 9 10 6 8 6 3 15 15 15 12 11 6 6 7 11 12 12 12 13 11 13 12 10 11 11 10 11 11 10 10 11 11 12 11 11 10 8 7 7
2 2 2 4 4 6 5 10 5 11 14 14 15 11 4 14 16 13 11 11 9 9 6 6 11 13 12 11 12 12 12 11 11 11 12 10 11 9 8 8 8 9 11 11 9 9 9 6 9
2 3 6 3 9 10 7 6 10 14 13 10 12 8 6 10 13 12 11 9 8 6 5 5 5 9 12 11 11 11 12 12 11 12 12 10 11 9 7 8 8 8 8 9 8 8 8 9 10
4 2 7 7 8 5 6 4 7 13 10 14 11 5 10 10 14 11 10 7 6 4 5 5 5 6 4 6 11 11 12 12 12 12 11 11 10 8 7 7 8 7 6 7 8 7 7 7 6
5 4 1 3 8 4 5 10 1 5 20 5 1 8 15 18 16 13 9 7 5 5 3 4 5 5 4 4 7 9 11 11 11 11 11 6 3 4 5 4 7 7 6 6 6 6 7 5 6
3 3 9 7 5 11 8 0 6 11 13 14 17 15 19 18 16 15 12 10 8 6 5 5 5 5 5 3 5 4 4 4 4 5 5 3 3 2 2 2 4 5 5 4 4 2 2 5 1
4 4 6 7 8 14 12 8 4 17 12 21 24 23 20 18 13 15 11 11 10 9 6 5 5 5 4 4 3 2 2 2 3 5 4 3 1 2 1 2 3 3 3 3 3 4 3 4 3
2 8 3 1 11 8 14 14 7 10 4 14 21 23 20 19 15 13 13 10 10 9 7 5 6 5 5 3 3 2 2 2 2 3 4 3 1 0 1 2 2 2 3 3 2 1 3 4 6
5 3 4 2 13 11 10 10 8 12 15 16 20 21 20 16 12 10 10 8 9 9 7 6 6 5 4 5 3 1 2 2 2 2 3 3 3 2 1 0 1 2 1 2 2 3 4 4 2
3 5 7 3 5 6 9 9 8 9 18 22 22 20 18 17 15 12 11 10 9 8 9 7 6 6 6 4 3 3 1 2 2 2 3 5 3 2 2 2 2 2 2 1 0 1 3 3 3
8 5 7 4 2 5 9 5 13 8 19 23 21 19 16 16 14 15 15 13 11 9 9 10 7 6 5 3 3 3 1 1 3 3 3 4 4 4 4 3 2 2 1 1 2 2 2 2 2
5 5 3 4 6 6 4 4 7 6 12 21 21 17 15 16 15 13 12 12 11 10 11 7 9 7 7 6 3 3 1 0 2 1 4 4 5 4 2 2 2 1 1 2 2 3 3 3 2
6 1 2 3 6 9 3 2 4 6 13 10 17 16 15 11 11 9 11 11 11 11 11 9 7 8 7 6 4 3 2 2 2 0 4 6 5 4 3 4 2 0 2 2 2 2 1 2 1
3 2 4 4 5 4 7 2 4 6 15 16 5 15 18 16 17 13 13 10 10 7 7 8 6 7 6 5 4 3 2 1 1 1 3 5 4 5 4 3 3 2 1 1 1 1 2 1 2
1 2 3 4 4 4 6 4 9 3 12 10 7 5 14 16 12 12 11 11 10 7 7 8 8 7 6 2 2 2 2 1 1 2 3 4 4 5 4 3 3 3 3 1 3 2 4 3 3
3 2 4 4 3 4 3 4 1 2 4 15 15 2 9 13 15 12 12 13 11 12 9 8 7 8 5 3 2 2 2 1 1 1 1 4 4 4 4 2 1 3 2 2 3 4 2 2 2
3 4 5 6 8 9 12 1 4 2 5 12 11 6 4 12 15 15 14 14 10 11 11 11 10 9 6 5 4 3 3 3 1 1 2 2 4 3 4 3 2 1 2 0 1 2 4 2 2
3 8 9 13 4 5 1 1 5 4 5 16 21 11 2 5 12 15 15 13 11 13 10 10 9 8 6 7 5 5 4 4 3 3 2 3 4 4 4 4 4 2 2 2 1 2 2 1 3
9 5 7 6 5 6 0 5 5 11 10 16 17 16 7 4 11 18 19 17 14 12 12 10 8 7 6 7 7 5 3 2 2 2 4 2 3 4 4 5 5 4 2 2 2 3 3 2 2
8 9 11 6 3 2 8 6 5 13 14 17 17 15 9 5 5 8 9 14 13 9 8 10 9 7 7 6 7 7 7 6 4 3 3 2 2 1 3 4 4 4 4 4 2 3 1 2 3
6 6 4 4 2 6 5 5 2 9 11 17 21 22 14 2 2 3 7 11 9 12 11 9 8 7 7 7 7 7 7 7 6 5 4 4 2 2 4 4 4 3 3 3 3 3 2 1 2
10 10 8 6 6 3 1 4 3 5 8 9 8 14 10 4 1 3 3 6 10 12 13 12 8 7 6 6 7 6 6 4 4 5 4 4 4 4 5 6 5 5 4 4 3 2 1 1 1
5 4 6 8 1 4 4 3 5 9 11 11 12 12 9 5 5 6 6 2 7 6 11 14 10 7 6 5 4 5 5 6 5 5 4 4 3 3 5 5 5 5 5 5 4 2 1 1 1
9 7 3 4 6 3 1 3 5 9 11 12 10 9 7 5 3 7 6 1 2 6 5 7 7 7 6 6 3 2 4 4 4 5 5 5 3 3 4 5 6 5 4 4 4 2 2 1 1
4 2 6 7 3 6 3 4 3 5 10 11 10 10 6 5 6 4 5 8 2 5 7 7 8 9 7 6 3 2 4 4 4 5 6 6 4 6 6 5 5 5 5 4 3 3 3 3 2
1 1 3 7 3 4 5 1 9 11 7 9 9 9 8 4 5 4 3 6 5 7 10 9 6 10 6 5 4 3 4 5 5 5 5 4 5 6 6 6 6 6 5 4 5 5 4 4 4
Wind_Direction
172 140 282 160 28 21 62 160 139 111 151 144 157 138 149 74 154 187 133 132 128 129 145 144 140 134 132 128 126 126 124 119 115 110 110 108 109 107 102 106 112 106 101 106 102 98 103 110 112
145 61 21 8 51 75 314 128 135 142 145 135 138 92 44 83 68 119 112 134 129 132 122 136 138 130 131 132 125 122 121 122 120 111 113 112 113 112 109 111 112 108 110 111 105 108 110 108 114
153 33 31 38 53 350 123 99 111 119 136 140 100 70 62 74 123 123 129 131 126 119 124 137 133 140 137 139 132 130 129 125 128 125 124 121 122 115 112 111 118 114 113 118 114 112 107 121 140
60 352 33 50 284 12 127 124 119 113 103 62 109 82 100 113 127 134 131 130 125 125 131 138 141 141 141 138 133 136 136 131 129 120 119 122 121 121 114 116 115 115 116 119 118 119 113 107 116
124 218 190 217 211 88 114 139 137 131 118 131 121 92 76 55 109 126 131 134 132 132 130 133 142 138 135 140 136 137 136 133 133 131 128 133 128 122 121 125 125 118 121 123 125 121 111 102 134
207 170 219 147 182 143 127 136 111 92 102 100 101 111 77 129 127 139 135 137 138 133 133 141 147 145 138 145 132 138 140 136 142 143 132 126 125 126 120 119 119 126 120 121 126 115 95 81 141
3 25 346 217 120 115 132 114 129 121 114 108 139 99 109 141 144 135 135 133 136 130 124 118 139 137 132 139 135 136 125 129 128 134 131 137 132 133 132 128 124 120 112 114 112 98 85 80 109
92 74 1 347 130 101 117 83 120 118 98 110 132 136 150 155 133 119 120 117 114 117 118 123 113 102 107 136 138 135 126 125 123 123 138 134 136 132 114 104 114 113 109 115 118 114 93 79 66
148 110 112 273 128 59 62 120 175 82 122 130 74 128 136 136 129 128 123 125 116 126 126 126 124 121 115 117 141 130 130 131 129 132 129 99 67 69 79 125 125 125 119 106 93 88 98 99 94
150 145 177 220 132 151 179 102 130 128 135 100 103 114 132 142 144 146 153 154 156 157 163 157 143 133 139 112 96 107 101 89 99 94 95 78 78 126 101 121 121 102 90 82 68 63 95 104 155
176 197 179 198 166 165 167 151 129 143 135 146 147 145 147 151 156 153 163 171 168 171 162 169 146 145 135 115 106 85 92 108 104 112 111 92 69 8 22 18 34 19 29 24 12 349 336 304 267
151 241 165 246 181 153 169 148 141 122 191 147 143 150 151 157 168 165 165 170 159 166 168 159 148 141 134 116 110 111 119 122 135 157 156 140 146 297 35 29 7 343 330 336 338 7 283 251 244
235 191 140 20 141 155 112 154 118 154 183 152 145 156 161 162 165 163 153 161 165 154 157 160 145 137 127 121 132 132 174 183 157 173 178 164 160 178 188 264 273 287 350 7 326 324 344 37 75
200 131 114 79 102 106 104 123 159 181 172 153 157 162 167 167 170 153 158 166 166 152 164 151 144 153 145 150 154 136 137 168 191 187 208 167 148 159 219 247 281 260 311 344 130 346 359 7 43
74 75 92 96 90 103 137 117 164 157 152 157 163 165 168 171 172 165 167 163 164 163 158 163 155 148 132 165 139 128 103 200 171 183 217 172 206 187 213 256 269 275 320 329 280 333 80 90 52
77 76 149 173 165 150 93 154 196 167 169 164 168 167 173 176 169 162 168 161 161 156 161 165 166 163 167 177 170 135 85 223 128 224 160 187 186 157 198 142 203 300 292 324 7 12 349 9 116
1 171 221 286 204 153 90 120 231 177 158 190 167 172 175 161 166 161 166 164 158 165 157 159 150 165 162 156 133 150 148 165 171 202 125 164 155 150 154 150 121 196 276 11 336 358 20 340 291
148 149 225 224 194 150 114 176 193 171 169 187 118 167 173 168 177 173 167 168 159 152 160 144 152 156 143 131 117 129 168 162 298 139 151 164 155 135 117 116 127 114 58 47 339 343 306 325 343
226 230 288 51 144 116 139 139 182 197 173 190 181 87 168 175 172 171 172 170 158 156 159 155 155 155 142 123 131 133 176 174 134 220 160 212 157 134 134 134 118 104 73 330 346 332 11 3 19
197 312 72 51 175 117 114 122 142 174 173 168 217 113 182 168 164 170 178 177 169 169 170 152 171 167 172 137 152 131 146 130 150 187 191 202 179 157 148 136 116 115 68 6 16 28 356 342 4
214 201 174 141 117 63 121 59 172 240 151 177 209 208 336 169 165 178 178 184 168 175 176 165 173 179 166 164 113 73 65 67 58 205 198 220 194 178 165 157 165 161 111 74 303 25 48 16 332
263 200 201 151 147 161 255 142 247 186 181 178 194 205 186 190 181 174 182 184 182 187 186 167 162 170 166 163 148 154 172 156 203 177 172 184 178 201 196 201 173 166 152 170 298 55 42 93 28
232 233 224 127 100 109 354 91 276 157 197 193 186 205 239 350 188 183 185 186 188 175 182 175 155 168 160 161 159 160 161 171 122 136 162 174 178 200 173 173 161 146 145 191 135 87 38 8 60
118 69 48 53 65 16 184 173 212 189 189 189 187 201 249 352 106 202 213 191 177 169 175 175 159 172 166 162 160 175 173 167 149 166 175 182 202 213 198 180 166 161 175 179 159 105 77 35 45
110 83 38 45 15 223 163 131 323 200 175 190 181 197 197 257 46 24 192 198 192 172 172 176 164 178 181 165 166 175 180 174 180 173 172 172 167 198 220 180 187 192 172 192 150 128 111 346 67
184 160 151 167 189 203 175 218 335 60 92 93 152 191 166 219 117 322 259 209 192 198 175 178 174 173 180 176 169 182 185 182 194 176 167 183 188 199 195 198 195 194 179 175 175 146 169 128 332
193 161 194 108 112 109 171 135 120 102 94 99 103 121 151 179 192 179 262 270 214 216 191 182 167 158 151 177 168 185 184 184 204 198 177 176 193 204 218 211 197 204 194 172 168 180 203 70 308
155 171 98 26 150 167 241 205 161 154 133 130 114 127 132 134 194 237 184 128 217 173 151 149 145 135 127 118 116 172 218 200 184 171 196 200 200 212 225 230 212 213 206 183 169 181 224 229 272
349 104 52 109 113 144 152 240 338 153 135 129 133 137 143 155 152 201 149 145 41 84 86 109 116 119 108 110 107 173 237 217 213 196 187 211 204 207 202 214 210 209 215 207 181 208 238 227 236
279 60 122 127 177 73 115 315 330 132 144 129 129 117 127 141 129 153 132 118 159 117 104 98 98 111 102 82 68 26 310 260 216 236 229 197 203 204 210 197 206 208 215 219 209 220 212 224 262